sat.trackr.live / text

‹ back to catalog

STARLINK-6308

NORAD 56534 · 2023-065AH

PAYLOAD ACTIVE UNKNOWN

§ Identity

Operator
Country
US
Launch date
2023-05-14
Launch site
AFETR
Launch vehicle
Mass (kg)
RCS (m²)

Purposes: comms

External: N2YO · Heavens-Above · Gunter

§ Orbital elements

Epoch: 2026-05-24T23:54:20.786688Z

Period
94.27 min
Inclination
42.9992°
Eccentricity
0.0001016
Mean motion
15.27575254 rev/d
Perigee alt
482.4 km
Apogee alt
483.8 km
Semi-major
6,861.2 km
B*
-1.0163e-6
RAAN
127.3611°
Arg perigee
313.9388°
Mean anomaly
46.1379°
Rev number
16,843

§ Raw data

STARLINK-63081 56534U 23065AH  26144.99607392 -.00000290  00000+0 -10163-5 0  99992 56534  42.9992 127.3611 0001016 313.9388  46.1379 15.27575254168439

JSON: /api/v1/satellites/56534 · /tle

For live sub-satellite position, see the globe view (requires WebGL).

§ Visibility from observer

Set your observer location to see the next 7 days of passes ≥ 10°. The values pass through the URL so the page stays shareable.

No JS? Fill the form by hand. The geolocation button needs JavaScript.